Location: Marne
(34.0056°N, 117.9064°W)
Time: 18:02:42
(UTC+00:00)

SL-8 Rocket - Pass Details

Date: 18 January 2020
Orbit: 956 x 991 km, 82.9° (Epoch: 22 February)

Event Time Altitude Azimuth Distance (km) Brightness Sun altitude
Rises 02:31:55 0° 178° (S) 3,688 7.2 -17.4°
Reaches altitude 10° 02:34:26 10° 176° (S) 2,744 6.5 -17.9°
Maximum altitude 02:40:41 71° 93° (E) 1,045 3.9 -19.2°
Drops below altitude 10° 02:46:58 10° 11° (N) 2,751 6.1 -20.4°
Sets 02:49:30 0° 9° (N) 3,699 6.8 -21.0°
